STARLINK-37103

Last updated on Sun Apr 12 2026 00:02:07 GMT+0000 (Coordinated Universal Time)

1 68267U 26055F 26101.51294012 .00216349 00000+0 10688-2 0 9990 2 68267 53.1577 172.7562 0001903 33.3984 326.7159 15.80947247 4871
UTC large
Height (km)
Speed (km/s)
/
Latitude / Longitude
Inclination (degrees)
Orbital Period (minutes)
Azimuth
Elevation
Range (km)
Doppler Factor

Next 0 passes for location: London (51.5072 / 0.1276)

Sorry there are no passes over London.
STARLINK-37103